Location: Pompeys Pillar
(45.9913°N, 107.9528°W)
Time: 05:04:22
(UTC+00:00)

Tiros 1 - Pass Details

Date: 31 May 2022
Orbit: 629 x 663 km, 48.4° (Epoch: 30 June)

Event Time Altitude Azimuth Distance (km) Brightness Sun altitude
Rises 09:26:33 0° 281° (WNW) 2,920 10.3 -15.3°
Reaches altitude 10° 09:28:53 10° 284° (WNW) 2,015 9.5 -15.1°
Maximum altitude 09:33:30 69° 8° (N) 683 7.4 -14.6°
Drops below altitude 10° 09:38:10 10° 92° (E) 2,030 10.1 -14.2°
Sets 09:40:31 0° 95° (E) 2,944 11.0 -13.9°
